Flag for Rwanda Weather past 2 weeks in Gitarama, Rwanda

Now
90 °F

Scattered clouds.


Feels Like: 87 °F
Forecast: 56 / 85 °F
Wind: 6 mph from South

Location: Kigali Airport

Current Time: Aug 30, 2015 at 4:15:11 PM

Latest Report: Aug 30, 2015 at 3:30 PM


Visibility: N/A

Pressure: 30.04 "Hg (24.36 "Hg at 1872m altitude)

Humidity: 29%

Dew point: 54 °F

Location of GitaramaLocation

Historic Weather in Gitarama — Graph

°F

Gitarama temperature yesterday

Maximum temperature yesterday: 88 °F (at 3:30 PM)
Minimum temperature yesterday: 66 °F (at 3:00 AM)
Average temperature yesterday: 76 °F

Past Weeks' High & Low Weather Summary

 TemperatureHumidityPressure
High90 °F (Aug 20, 3:30 PM)94% (Aug 16, 3:30 AM)30.27 "Hg (Aug 16, 3:30 AM)
Low57 °F (Aug 24, 5:30 AM)20% (Aug 16, 11:00 AM)29.98 "Hg (Aug 20, 5:00 PM)
Average75 °F49%30.12 "Hg
* Reported Aug 15 3:00 PM — Aug 30 3:00 PM, Gitarama, Weather by CustomWeather, © 2015

Note: Actual official high and low records may vary slightly from our data, if they occured in-between our weather recording intervals... More about our weather records

Advertising

Gitarama weather history for previous 24 hours

 ConditionsComfort  
Time TempWeatherWind HumidityBarometerVisibility
3:00 PM
Sun, Aug 30
88 °FScattered clouds.8 mph29%30.04 "HgN/A
2:30 PM88 °FScattered clouds.7 mph29%30.07 "HgN/A
2:00 PM88 °FScattered clouds.9 mph29%30.07 "HgN/A
1:00 PM86 °FScattered clouds.7 mph33%30.12 "HgN/A
12:30 PM84 °FScattered clouds.9 mph35%30.15 "HgN/A
11:30 AM82 °FPassing clouds.7 mph40%30.18 "HgN/A
11:00 AM82 °FPassing clouds.3 mph40%30.21 "HgN/A
10:30 AM81 °FPassing clouds.6 mph42%30.21 "HgN/A
10:00 AM79 °FPassing clouds.6 mph45%30.24 "HgN/A
9:30 AM77 °FPassing clouds.5 mph51%30.24 "HgN/A
9:00 AM77 °FSunny.3 mph51%30.21 "Hg10 mi
8:30 AM75 °FSunny.No wind57%30.21 "Hg10 mi
8:00 AM73 °FSunny.No wind61%30.21 "Hg10 mi
7:30 AM68 °FSunny.No wind73%30.21 "Hg10 mi
7:00 AM64 °FSunny.No wind83%30.21 "Hg10 mi
6:30 AM64 °FSunny.No wind78%30.18 "Hg10 mi
5:00 AM64 °FPassing clouds.No wind78%30.15 "HgN/A
4:30 AM66 °FPassing clouds.No wind73%30.12 "HgN/A
4:00 AM66 °FPassing clouds.No wind73%30.12 "HgN/A
3:30 AM68 °FPassing clouds.3 mph73%30.12 "HgN/A
3:00 AM68 °FPassing clouds.3 mph73%30.12 "HgN/A
2:30 AM68 °FPassing clouds.No wind69%30.12 "HgN/A
2:00 AM68 °FPassing clouds.6 mph69%30.12 "HgN/A
1:30 AM70 °FPassing clouds.5 mph64%30.12 "HgN/A
1:00 AM70 °FPassing clouds.No wind64%30.12 "HgN/A
12:30 AM70 °FPassing clouds.3 mph69%30.15 "HgN/A
12:00 AM72 °FPassing clouds.5 mph65%30.15 "HgN/A
11:30 PM
Sat, Aug 29
72 °FPassing clouds.5 mph65%30.15 "HgN/A
11:00 PM73 °FPassing clouds.3 mph61%30.18 "HgN/A
10:00 PM73 °FPassing clouds.No wind61%30.15 "HgN/A
9:30 PM75 °FPassing clouds.3 mph57%30.15 "HgN/A
9:00 PM75 °FPassing clouds.3 mph57%30.15 "HgN/A
8:30 PM75 °FPassing clouds.5 mph54%30.12 "HgN/A
8:00 PM77 °FPassing clouds.6 mph51%30.09 "HgN/A
7:30 PM77 °FPassing clouds.7 mph51%30.09 "HgN/A
7:00 PM79 °FPassing clouds.9 mph51%30.07 "HgN/A
6:30 PM81 °FPassing clouds.9 mph48%30.07 "HgN/A
5:30 PM86 °FScattered clouds.8 mph31%30.07 "HgN/A
4:30 PM88 °FScattered clouds.7 mph29%30.04 "HgN/A
4:00 PM88 °FScattered clouds.6 mph29%30.04 "HgN/A
Weather by CustomWeather, © 2015

See weather overviewHow to use our weather pages